This is the latest recevied weather packets stored in our database for station/object KN6CRX. If no packets are shown the sender has not sent any weather packets the latest 10 day(s).
| Time | Temp. | Humidity | Pressure | Rain* | Wind** | Luminosity | Snow |
|---|---|---|---|---|---|---|---|
| 1787543581 | 21.11° C | 56% | 1022.9 hPa | 0 mm | - | 0 W/m² | - |
| 1787543276 | 21.67° C | 51% | 1022.5 hPa | 0 mm | - | 0 W/m² | - |
| 1787542972 | 21.11° C | 51% | 1022.1 hPa | 0 mm | - | 0 W/m² | - |
| 1787542666 | 21.11° C | 52% | 1021.7 hPa | 0 mm | - | 0 W/m² | - |
| 1787542362 | 21.11° C | 53% | 1021.5 hPa | 0 mm | - | 0 W/m² | - |
| 1787542058 | 21.11° C | 54% | 1021.3 hPa | 0 mm | - | 0 W/m² | - |
| 1787541754 | 21.11° C | 54% | 1021.3 hPa | 0 mm | - | 0 W/m² | - |
| 1787541450 | 21.11° C | 55% | 1021.3 hPa | 0 mm | - | 0 W/m² | - |
| 1787541147 | 21.67° C | 55% | 1021.3 hPa | 0 mm | - | 0 W/m² | - |
| 1787540843 | 21.67° C | 52% | 1021.4 hPa | 0 mm | - | 0 W/m² | - |
| 1787540539 | 21.67° C | 52% | 1021.5 hPa | 1.78 mm | - | 0 W/m² | - |
| 1787540236 | 21.67° C | 50% | 1021.8 hPa | 1.78 mm | - | 0 W/m² | - |
| 1787539933 | 21.11° C | 51% | 1021.2 hPa | 0 mm | - | 0 W/m² | - |
| 1787539628 | 21.67° C | 57% | 1022.2 hPa | 0 mm | - | 0 W/m² | - |
| 1787539327 | 21.67° C | 51% | 1022.9 hPa | 0 mm | - | 0 W/m² | - |
| 1787539023 | 21.11° C | 52% | 1023.3 hPa | 0 mm | - | 0 W/m² | - |
| 1787538720 | 21.67° C | 54% | 1023.3 hPa | 0 mm | - | 0 W/m² | - |
| 1787538416 | 22.78° C | 50% | 1022.2 hPa | 0 mm | - | 0 W/m² | - |
| 1787538111 | 22.78° C | 47% | 1020.9 hPa | 0 mm | - | 0 W/m² | - |
| 1787537807 | 22.78° C | 48% | 1020.6 hPa | 0 mm | - | 0 W/m² | - |
| 1787537503 | 22.78° C | 46% | 1020.5 hPa | 0 mm | - | 0 W/m² | - |
| 1787537198 | 22.78° C | 47% | 1020.5 hPa | 0 mm | - | 0 W/m² | - |
| 1787536898 | 22.78° C | 46% | 1020.6 hPa | 0 mm | - | 1 W/m² | - |
| 1787536593 | 22.22° C | 46% | 1020.7 hPa | 0 mm | - | 1 W/m² | - |
| 1787536289 | 22.22° C | 50% | 1020.6 hPa | 0 mm | - | 3 W/m² | - |
* Rain latest hour (hover to see other rain measurements)
** Current wind speed in m/s (hover to see current wind gust speed)